Weather History for Port Lavaca, TX

Change the Weather History Date:

Tuesday, January 21, 2014

  Actual Average (KVCT) Record (KVCT)
Temperature  
Mean Temperature 52 °F 54 °F  
Max Temperature 64 °F 65 °F 87 °F (1911)
Min Temperature 40 °F 43 °F 19 °F (1985)
Degree Days  
Heating Degree Days 12 11  
Month to date heating degree days 250  
Since 1 July heating degree days 744  
Cooling Degree Days 0 0  
Month to date cooling degree days 7  
Year to date cooling degree days 7  
Growing Degree Days 2 (Base 50)    
Moisture  
Dew Point 29 °F    
Average Humidity 40    
Maximum Humidity 91    
Minimum Humidity 23    
Precipitation  
Precipitation 0.00 in 0.09 in 1.05 in (1980)
Month to date precipitation 1.74  
Year to date precipitation 1.74  
Snow  
Snow 0.00 in - - ()
Month to date snowfall  
Since 1 July snowfall  
Snow Depth -    
Sea Level Pressure  
Sea Level Pressure 30.25 in    
Wind  
Wind Speed 16 mph (North)    
Max Wind Speed 26 mph    
Max Gust Speed 37 mph    
Visibility 10 miles    
Events      
T = Trace of Precipitation, MM = Missing Value Source: NWS Daily Summary

Daily Weather History Graph

Daily Weather History Graph

Search for Another Location

Airport:

Trip Planner

Search our weather history database for the weather conditions in past years. The results will help you decide how hot, cold, wet, or windy it might be!

Date:

Astronomy

Jan. 21, 2014 Rise Set
Actual Time 7:19 AM CST 5:57 PM CST
Civil Twilight 6:54 AM CST 6:22 PM CST
Nautical Twilight 6:25 AM CST 6:50 PM CST
Astronomical Twilight 5:57 AM CST 7:19 PM CST
Moon 11:00 PM CST (1/21) 10:17 AM CST (1/21)
Length of Visible Light 11h 28m
Length of Day
10h 37m
Waning Gibbous, 74% of the Moon is Illuminated
Jan 21
Waning Gibbous
Jan 23
Last Quarter
Jan 30
New
Feb 6
First Quarter
Feb 14
Full

Hourly Weather History & Observations

Time (CST) Temp. Windchill Dew Point Humidity Pressure Visibility Wind Dir Wind Speed Gust Speed Precip Events Conditions
12:15 AM 57.4 °F - 54.9 °F 91% 30.05 in 10.0 mi NW 9.2 mph - N/A   Clear
12:35 AM 57.4 °F - 50.7 °F 78% 30.05 in 10.0 mi NNW 15.0 mph - N/A   Clear
12:55 AM 57.4 °F - 47.5 °F 70% 30.06 in 10.0 mi NNW 16.1 mph - N/A   Clear
1:15 AM 56.8 °F - 45.7 °F 66% 30.07 in 10.0 mi NNW 12.7 mph - N/A   Clear
1:35 AM 55.8 °F - 43.9 °F 64% 30.08 in 10.0 mi NNW 15.0 mph - N/A   Clear
1:55 AM 55.8 °F - 41.5 °F 59% 30.08 in 10.0 mi NNW 17.3 mph - N/A   Clear
2:15 AM 55.9 °F - 39.6 °F 54% 30.09 in 10.0 mi NNW 18.4 mph - N/A   Clear
2:35 AM 56.3 °F - 38.3 °F 51% 30.10 in 10.0 mi North 18.4 mph 25.3 mph N/A   Clear
2:55 AM 56.3 °F - 37.8 °F 50% 30.11 in 10.0 mi North 19.6 mph 25.3 mph N/A   Clear
3:15 AM 56.1 °F - 36.9 °F 48% 30.13 in 10.0 mi North 20.7 mph 27.6 mph N/A   Clear
3:35 AM 56.3 °F - 35.8 °F 46% 30.13 in 10.0 mi North 21.9 mph 29.9 mph N/A   Clear
3:55 AM 55.8 °F - 35.1 °F 46% 30.15 in 10.0 mi North 19.6 mph 26.5 mph N/A   Clear
4:15 AM 55.6 °F - 33.8 °F 44% 30.15 in 10.0 mi North 23.0 mph 32.2 mph N/A   Clear
4:35 AM 55.2 °F - 32.7 °F 43% 30.17 in 10.0 mi North 20.7 mph 31.1 mph N/A   Clear
4:55 AM 54.5 °F - 32.0 °F 42% 30.17 in 10.0 mi North 25.3 mph 31.1 mph N/A   Clear
5:15 AM 53.6 °F - 32.0 °F 44% 30.19 in 10.0 mi North 19.6 mph 31.1 mph N/A   Clear
5:35 AM 53.1 °F - 31.6 °F 44% 30.20 in 10.0 mi North 21.9 mph 28.8 mph N/A   Clear
5:55 AM 52.7 °F - 31.1 °F 44% 30.21 in 10.0 mi North 20.7 mph 28.8 mph N/A   Clear
6:15 AM 52.7 °F - 30.2 °F 42% 30.22 in 10.0 mi North 21.9 mph 27.6 mph N/A   Clear
6:35 AM 52.5 °F - 29.1 °F 41% 30.25 in 10.0 mi North 18.4 mph 27.6 mph N/A   Clear
6:55 AM 52.5 °F - 27.5 °F 38% 30.26 in 10.0 mi North 20.7 mph 29.9 mph N/A   Clear
7:15 AM 52.0 °F - 27.1 °F 38% 30.26 in 10.0 mi North 24.2 mph 31.1 mph N/A   Clear
7:35 AM 51.8 °F - 27.0 °F 38% 30.28 in 10.0 mi North 21.9 mph 29.9 mph N/A   Clear
7:55 AM 51.8 °F - 26.8 °F 38% 30.29 in 10.0 mi North 24.2 mph 33.4 mph N/A   Clear
8:15 AM 51.8 °F - 27.9 °F 40% 30.30 in 10.0 mi North 20.7 mph 28.8 mph N/A   Clear
8:35 AM 52.9 °F - 27.7 °F 38% 30.31 in 10.0 mi North 26.5 mph 32.2 mph N/A   Clear
8:55 AM 54.0 °F - 27.5 °F 36% 30.33 in 10.0 mi North 25.3 mph 36.8 mph N/A   Clear
9:15 AM 54.7 °F - 27.0 °F 34% 30.34 in 10.0 mi North 21.9 mph 32.2 mph N/A   Clear
9:35 AM 55.6 °F - 27.1 °F 34% 30.35 in 10.0 mi North 24.2 mph 33.4 mph N/A   Clear
9:55 AM 57.0 °F - 27.9 °F 33% 30.35 in 10.0 mi North 21.9 mph 32.2 mph N/A   Clear
10:15 AM 57.7 °F - 26.6 °F 30% 30.36 in 10.0 mi North 23.0 mph 32.2 mph N/A   Clear
10:35 AM 58.1 °F - 26.8 °F 30% 30.37 in 10.0 mi North 21.9 mph 34.5 mph N/A   Clear
10:55 AM 59.4 °F - 26.8 °F 29% 30.37 in 10.0 mi North 21.9 mph 34.5 mph N/A   Clear
11:15 AM 59.9 °F - 26.4 °F 28% 30.36 in 10.0 mi NNE 24.2 mph 35.7 mph N/A   Clear
11:35 AM 60.4 °F - 26.8 °F 28% 30.36 in 10.0 mi North 19.6 mph 31.1 mph N/A   Clear
11:55 AM 61.9 °F - 26.4 °F 26% 30.35 in 10.0 mi North 23.0 mph 29.9 mph N/A   Clear
12:15 PM 61.9 °F - 25.5 °F 25% 30.34 in 10.0 mi North 23.0 mph 31.1 mph N/A   Clear
12:35 PM 62.6 °F - 25.9 °F 25% 30.33 in 10.0 mi North 20.7 mph 29.9 mph N/A   Clear
12:55 PM 63.3 °F - 26.4 °F 25% 30.32 in 10.0 mi North 16.1 mph 25.3 mph N/A   Clear
1:15 PM 63.0 °F - 25.9 °F 24% 30.31 in 10.0 mi NNW 21.9 mph 28.8 mph N/A   Clear
1:35 PM 63.5 °F - 25.9 °F 24% 30.30 in 10.0 mi North 19.6 mph 26.5 mph N/A   Clear
1:55 PM 64.0 °F - 25.7 °F 23% 30.29 in 10.0 mi North 16.1 mph 25.3 mph N/A   Clear
2:15 PM 64.6 °F - 25.5 °F 23% 30.29 in 10.0 mi NNW 15.0 mph 24.2 mph N/A   Clear
2:35 PM 63.9 °F - 25.2 °F 23% 30.28 in 10.0 mi NW 16.1 mph 20.7 mph N/A   Clear
2:55 PM 64.6 °F - 25.5 °F 23% 30.28 in 10.0 mi North 13.8 mph 24.2 mph N/A   Clear
3:15 PM 64.0 °F - 25.5 °F 23% 30.27 in 10.0 mi NW 17.3 mph 21.9 mph N/A   Clear
3:35 PM 63.7 °F - 24.8 °F 23% 30.27 in 10.0 mi NNW 19.6 mph 24.2 mph N/A   Clear
3:55 PM 63.7 °F - 25.2 °F 23% 30.27 in 10.0 mi NNW 13.8 mph - N/A   Clear
4:15 PM 63.1 °F - 24.1 °F 23% 30.27 in 10.0 mi NNW 16.1 mph 23.0 mph N/A   Clear
4:35 PM 62.6 °F - 25.2 °F 24% 30.28 in 10.0 mi NNW 16.1 mph - N/A   Clear
4:55 PM 61.7 °F - 25.5 °F 25% 30.28 in 10.0 mi NNW 15.0 mph - N/A   Clear
5:15 PM 60.8 °F - 24.4 °F 25% 30.28 in 10.0 mi NW 13.8 mph - N/A   Clear
5:35 PM 59.2 °F - 25.0 °F 27% 30.28 in 10.0 mi NNW 9.2 mph - N/A   Clear
5:55 PM 57.0 °F - 24.8 °F 29% 30.28 in 10.0 mi North 9.2 mph - N/A   Clear
6:15 PM 53.6 °F - 24.6 °F 33% 30.28 in 10.0 mi North 6.9 mph - N/A   Clear
6:35 PM 50.5 °F - 24.6 °F 36% 30.28 in 10.0 mi North 5.8 mph - N/A   Clear
6:55 PM 51.4 °F - 23.9 °F 34% 30.28 in 10.0 mi North 5.8 mph - N/A   Clear
7:15 PM 49.1 °F - 24.8 °F 39% 30.28 in 10.0 mi North 6.9 mph - N/A   Clear
7:35 PM 48.4 °F - 23.7 °F 38% 30.28 in 10.0 mi North 6.9 mph - N/A   Clear
7:55 PM 49.5 °F - 24.8 °F 38% 30.28 in 10.0 mi North 5.8 mph - N/A   Clear
8:15 PM 46.8 °F - 25.0 °F 43% 30.28 in 10.0 mi North 5.8 mph - N/A   Clear
8:35 PM 47.3 °F - 25.2 °F 42% 30.28 in 10.0 mi Calm Calm - N/A   Clear
8:55 PM 45.1 °F - 25.3 °F 46% 30.28 in 10.0 mi Calm Calm - N/A   Clear
9:15 PM 46.2 °F 44.1 °F 24.6 °F 43% 30.27 in 10.0 mi NNE 4.6 mph - N/A   Clear
9:35 PM 45.5 °F - 25.0 °F 45% 30.27 in 10.0 mi Calm Calm - N/A   Clear
9:55 PM 45.1 °F - 25.3 °F 46% 30.27 in 10.0 mi Calm Calm - N/A   Clear
10:15 PM 44.6 °F - 27.5 °F 51% 30.27 in 10.0 mi Calm Calm - N/A   Clear
10:35 PM 45.5 °F 44.2 °F 28.8 °F 52% 30.27 in 10.0 mi NNE 3.5 mph - N/A   Clear
10:55 PM 43.5 °F 40.9 °F 28.0 °F 54% 30.27 in 10.0 mi NNE 4.6 mph - N/A   Clear
11:15 PM 42.1 °F 40.2 °F 28.6 °F 59% 30.26 in 10.0 mi NE 3.5 mph - N/A   Clear
11:35 PM 41.5 °F 38.6 °F 29.1 °F 61% 30.26 in 10.0 mi NE 4.6 mph - N/A   Clear
11:55 PM 40.8 °F 36.9 °F 30.0 °F 65% 30.25 in 10.0 mi NE 5.8 mph - N/A   Clear